Portada
METAR-TAF:

METAR-TAF

Aeroports :

Birdsville, Austràlia

latitud: 25-53-51S, longitud: 139-20-51E, altitud: 48 m

Observació

L'informe es va fer fa 33 minuts, a les 07:00 UTC
Vent 12 kt del Sud/Sud-Est
Temperatura 28°C
Humitat 10%
Pressió 1017 hPa

METAR: YBDV 250700Z AUTO 16012KT //// // ////// 28/M07 Q1017

Hora: 17:33 (07:33 UTC)


TAF: manca

Observacions i pronòstics meteorològics de més de 4000 aeroports (METAR i TAF).

Les estacions disponibles són els punts grocs i vermells al mapa.

Posi el ratolí al punt desitjat per veure el nom de l'estació.

Feu clic per veure les observacions i els pronòstics meteorològics.

Per canviar el mapa: feu clic els botons verds amb una creu de color negre per apropar; al botó verd amb un guió per allunyar la imatge; o en les fletxes verdes per a mapes adjacents.


METAR-TAF: